User: anonymous
Location: Fort Wayne
(41.1310°N, 85.1290°W)
Time: 17:24:31
(UTC-04:00)
Language:

OAO 2 Rocket - Orbit

View from above orbital plane
View from above orbital plane
View from above satellite
View from above satellite

Ground track
Ground track

The orbit data is extracted from the following two-line orbital elements,

1 03598U 68110B   14106.84385096  .00000555  00000-0  13332-3 0  5903
2 03598 034.9951 029.9055 0050739 203.9113 198.5787 14.53564202397939
Epoch (UTC): 16 April 2014 20:15:08
Eccentricity: 0.0050739
inclination: 34.9951°
perigee height: 678 km
apogee height: 750 km
right ascension of ascending node: 29.9055°
argument of perigee: 203.9113°
revolutions per day: 14.53564202
mean anomaly at epoch: 198.5787°
orbit number at epoch: 39793

The dashed part of the orbit path shows where the satellite is in the earth's shadow,  

DLR